Weather in Jolo

Philippines     6°03′27″N   121°01′42″E
temp.,
°C
wind,
m/s
gust,
m/s
humid.,
%
clouds,
%
prec.,
mm/h
press.,
hPa
HPBL,
m
2 july, sat
sat223:00+25se119062 0.0 101060
02:00+25se1291100 0.0 100885
05:00+25ese2291100 0.0 100885
08:00+28ese3881100 0.1 1009619
11:00+31se57657 0.0 1008837
14:00+31se46635 0.0 1006942
17:00+29se357431 0.0 1006823
20:00+26ese248991 0.0 1008140
3 july, sun
sun323:00+26e1391100 0.0 1009123
02:00+25e129398 0.3 100786
05:00+25ene129387 0.3 100776
08:00+28e128191 0.9 1008390
11:00+31n126766 0.3 10081070
14:00+28ne1185100 7.5 1007352
17:00+26sse119099 4.9 100653
20:00+25s0091100 5.7 100848
4 july, mon
mon423:00+25nne2290100 5.3 100944
02:00+24nnw1293100 5.9 100759
05:00+24s1291100 0.1 100757
08:00+25s2390100 0.6 1008153
11:00+27s2384100 2.1 1008482
14:00+29ssw3367100 2.3 1006982
17:00+28ssw237565 0.1 1006621
20:00+25s2390100 0.4 1008153
5 july, tue
tue523:00+24sse2394100 4.9 100998
02:00+24se1193100 9.6 100858
05:00+24se1293100 0.8 100875
08:00+24se2295100 1.1 1010131
11:00+25sse2292100 0.1 1009163
14:00+24ese1294100 0.4 1007170
17:00+25se1193100 0.1 1007106
20:00+24ese1192100 0.1 100957
6 july, wed
wed623:00+24se1189100 0.0 100949
02:00+23ese119091 0.0 100856
05:00+24e118943 0.0 100841
08:00+27se117999 0.0 1010227
11:00+30w016589 0.0 1009980
14:00+28sse1181100 2.6 1007535
17:00+26e0088100 2.5 1007124
20:00+25ene0191100 2.6 100948